Home   Weather   Malmö   Past weeks

Flag for Sweden Past Weather in Malmö, Sweden — Yesterday and Last 2 Weeks

Now
52 °F

Clear.


Feels Like: 49 °F
Forecast: 53 / 62 °F
Wind: 9 mph from West

Location: Malmo / Sturup

Current Time: Oct 1, 2016 at 12:01:30 AM

Latest Report: Sep 30, 2016 at 11:20 PM


Visibility: 10 mi

Pressure: 29.83 "Hg

Humidity: 88%

Dew Point: 48 °F

Location of MalmöLocation

Past Weather in Malmö — Graph

°F

Malmö Temperature Yesterday

Maximum temperature yesterday: 61 °F (at 11:50 AM)
Minimum temperature yesterday: 52 °F (at 1:20 PM)
Average temperature yesterday: 56 °F

High & Low Weather Summary for the Past Weeks

 TemperatureHumidityPressure
High72 °F (Sep 16, 1:50 PM)100% (Sep 16, 1:50 AM)30.27 "Hg (Sep 16, 1:50 AM)
Low39 °F (Sep 22, 4:20 AM)49% (Sep 23, 4:50 PM)29.62 "Hg (Sep 29, 5:50 PM)
Average57 °F80%30.08 "Hg
* Reported Sep 15 10:20 PM — Sep 30 10:50 PM, Malmö, Weather by CustomWeather, © 2016

Note: Actual official high and low records may vary slightly from our data, if they occured in-between our weather recording intervals... More about our weather records

Advertising

Malmö Weather History for the Previous 24 Hours

Scroll right to see more
 ConditionsComfort  
Time TempWeatherWind HumidityBarometerVisibility
10:50 PM
Fri, Sep 30
52 °FClear.9 mph88%29.83 "Hg10 mi
10:20 PM54 °FClear.12 mph82%29.83 "Hg10 mi
9:50 PM54 °FClear.10 mph82%29.83 "Hg10 mi
9:20 PM54 °FClear.8 mph82%29.80 "Hg10 mi
8:50 PM54 °FClear.10 mph77%29.80 "Hg10 mi
8:20 PM54 °FClear.9 mph77%29.80 "Hg10 mi
7:50 PM54 °FClear.12 mph77%29.80 "Hg10 mi
7:20 PM54 °FClear.12 mph77%29.80 "Hg10 mi
6:50 PM54 °FClear.12 mph77%29.77 "Hg10 mi
6:20 PM55 °FSunny.14 mph67%29.77 "Hg10 mi
5:50 PM55 °FSunny.13 mph72%29.77 "Hg10 mi
5:20 PM57 °FSunny.12 mph77%29.77 "Hg10 mi
4:50 PM57 °FScattered clouds.12 mph77%29.77 "HgN/A
4:20 PM55 °FSunny.9 mph77%29.77 "Hg10 mi
3:50 PM55 °FScattered clouds.12 mph77%29.77 "HgN/A
3:20 PM52 °FThunderstorms. Partly sunny.18 mph82%29.80 "Hg6 mi
2:50 PM57 °FThunderstorms. Broken clouds.13 mph88%29.77 "Hg6 mi
2:20 PM54 °FScattered clouds.10 mph88%29.77 "HgN/A
1:50 PM54 °FScattered clouds.15 mph88%29.77 "HgN/A
1:20 PM52 °FThunderstorms. Broken clouds.23 mph82%29.77 "Hg5 mi
12:50 PM59 °FBroken clouds.17 mph72%29.77 "HgN/A
12:20 PM61 °FScattered clouds.21 mph72%29.74 "HgN/A
11:50 AM61 °FScattered clouds.17 mph72%29.77 "HgN/A
11:20 AM59 °FSunny.17 mph72%29.77 "Hg10 mi
10:50 AM59 °FSunny.16 mph72%29.77 "Hg10 mi
10:20 AM57 °FSunny.16 mph72%29.77 "Hg10 mi
9:50 AM57 °FSunny.15 mph72%29.74 "Hg10 mi
9:20 AM55 °FSunny.13 mph77%29.74 "Hg10 mi
8:50 AM55 °FSunny.13 mph77%29.74 "Hg10 mi
8:20 AM54 °FSunny.12 mph82%29.74 "Hg10 mi
7:50 AM54 °FSunny.12 mph82%29.71 "Hg10 mi
7:20 AM54 °FPassing clouds.13 mph82%29.71 "HgN/A
6:50 AM54 °FPassing clouds.15 mph82%29.71 "HgN/A
6:20 AM55 °FPassing clouds.15 mph77%29.68 "HgN/A
5:50 AM55 °FPassing clouds.17 mph77%29.68 "HgN/A
5:20 AM55 °FPartly cloudy.20 mph77%29.65 "HgN/A
4:50 AM57 °FPassing clouds.21 mph72%29.65 "HgN/A
4:20 AM55 °FClear.20 mph77%29.62 "Hg10 mi
3:50 AM57 °FClear.18 mph72%29.62 "Hg10 mi
3:20 AM57 °FClear.20 mph72%29.62 "Hg10 mi
2:50 AM57 °FPassing clouds.18 mph72%29.65 "HgN/A
2:20 AM57 °FClear.18 mph77%29.62 "Hg10 mi
1:20 AM57 °FClear.20 mph77%29.62 "Hg10 mi
12:50 AM57 °FPassing clouds.18 mph77%29.62 "HgN/A
12:20 AM59 °FPassing clouds.16 mph77%29.62 "HgN/A
Weather by CustomWeather, © 2016

See weather overviewHow to use our weather pages